Total_Precipitation_Accumulation
1.59 1.57 2.46 3.67 4.35 3.49 3.08 2.85 2.37 2.06 1.58 1.25 1.02 1.05 1.48 1.88 2.11 2.46 2.53 2.57 1.68 1.48 1.75 2.34 2.96 2.79 2.55 2.48 2.53 2.46 2.21 1.88 1.64 1.60 1.64 1.60 1.55 1.58 1.57 1.59 1.60 1.67 1.65 1.57 1.74 2.00 2.02 1.95 1.93
1.24 1.94 3.08 4.23 3.86 3.01 3.07 2.75 2.33 1.89 1.35 0.99 0.82 0.81 0.93 0.90 0.83 1.38 2.57 2.76 1.65 1.33 1.51 1.81 2.65 2.61 2.54 2.51 2.33 2.28 2.03 1.71 1.55 1.52 1.50 1.46 1.46 1.59 1.72 1.72 1.73 1.76 1.57 1.41 1.49 1.86 2.02 1.98 1.89
1.69 2.63 3.69 3.97 3.02 2.79 3.03 2.71 2.18 1.44 1.02 0.90 0.83 0.74 0.83 1.07 1.13 1.71 2.48 2.03 1.49 1.33 1.55 2.18 2.73 2.49 2.42 2.30 2.12 2.12 1.99 1.73 1.62 1.56 1.51 1.52 1.53 1.55 1.70 1.80 1.82 1.77 1.61 1.55 1.67 2.04 1.98 1.91 1.83
2.17 3.18 3.60 3.26 2.66 2.37 2.36 2.28 1.90 1.41 1.06 0.75 0.74 0.82 0.81 1.18 1.37 1.69 1.85 1.48 1.32 1.34 1.54 2.14 2.45 2.19 2.07 2.02 1.97 1.89 1.95 1.92 1.69 1.53 1.56 1.64 1.64 1.69 1.80 1.87 1.77 1.78 1.73 1.78 1.90 2.10 2.06 1.98 1.93
2.62 3.26 3.28 3.04 2.68 2.37 1.98 1.80 1.71 1.56 1.24 0.88 0.82 0.98 1.27 1.79 1.69 1.55 1.54 1.35 1.21 1.16 1.27 1.70 2.14 1.95 1.85 1.85 1.85 1.77 1.86 1.95 1.80 1.55 1.65 1.75 1.75 1.83 1.95 1.95 1.84 1.85 1.85 1.93 2.14 2.16 2.17 2.09 1.98
3.09 3.02 3.11 3.06 2.88 2.53 2.10 1.58 1.44 1.46 1.17 0.94 0.93 1.09 1.72 2.18 1.99 1.84 1.56 1.57 1.37 1.20 1.15 1.32 1.73 1.80 1.68 1.71 1.86 1.77 1.77 1.87 1.81 1.68 1.69 1.65 1.73 1.91 2.03 2.01 1.87 1.81 1.87 2.09 2.44 2.40 2.27 2.08 2.03
2.98 2.86 2.86 2.51 2.63 2.89 2.24 1.39 1.43 1.44 1.31 1.10 0.87 1.10 1.62 1.93 1.78 1.69 1.53 1.54 1.57 1.49 1.35 1.22 1.25 1.41 1.53 1.65 1.79 1.75 1.71 1.72 1.65 1.71 1.74 1.80 1.88 1.91 1.89 1.90 1.86 1.85 1.90 1.99 2.27 2.26 2.17 2.09 2.09
2.39 2.48 2.43 2.42 2.63 2.83 2.04 1.25 1.12 1.29 1.25 0.87 0.92 1.23 1.47 1.43 1.37 1.38 1.45 1.63 1.62 1.56 1.43 1.21 1.10 1.11 1.25 1.28 1.50 1.73 1.79 1.73 1.61 1.67 1.78 1.88 1.90 1.87 1.86 1.78 1.92 2.01 1.98 2.11 2.33 2.25 2.11 2.09 2.01
1.99 2.48 2.75 2.80 2.70 2.41 1.62 1.30 1.06 0.94 0.93 0.86 0.86 0.97 1.04 0.95 1.05 1.20 1.20 1.27 1.38 1.30 1.23 1.15 1.10 1.14 1.25 1.27 1.33 1.65 1.73 1.65 1.47 1.44 1.65 1.68 1.55 1.62 1.85 1.95 2.24 2.20 2.20 2.30 2.43 2.40 2.17 1.92 1.87
2.05 2.50 2.56 2.06 1.66 1.61 1.38 1.23 1.11 1.16 1.20 1.02 0.97 0.98 1.01 0.99 1.03 1.07 1.06 1.07 1.09 1.03 0.93 0.91 0.93 1.01 1.13 1.18 1.54 1.82 1.63 1.56 1.33 1.34 1.32 1.41 1.47 1.69 1.68 1.92 2.31 2.23 2.20 2.19 2.35 2.38 2.00 1.53 1.30
1.72 2.11 1.79 1.53 1.25 1.07 1.12 1.11 0.89 1.08 1.30 1.08 1.01 0.95 1.01 1.09 1.05 1.04 1.02 0.91 0.87 0.80 0.73 0.68 0.64 0.66 0.75 0.99 1.34 1.65 1.80 1.80 1.79 1.59 1.40 1.43 1.22 1.16 1.17 1.27 1.45 1.52 1.60 1.57 1.71 1.87 1.58 1.32 1.25
1.63 1.61 1.43 1.41 1.04 1.00 1.00 0.95 0.90 0.95 1.07 0.96 1.00 0.89 0.90 1.00 1.00 0.96 0.96 0.91 0.79 0.77 0.73 0.65 0.60 0.55 0.59 0.67 0.86 1.11 1.30 1.42 1.49 1.40 1.22 1.29 1.19 1.09 1.09 1.11 1.11 1.12 1.23 1.37 1.39 1.53 1.50 1.30 1.20
1.69 1.66 1.35 1.10 0.98 0.93 0.86 0.83 0.85 0.95 0.90 0.81 0.90 0.97 1.01 0.99 0.97 1.01 1.07 1.04 0.89 0.88 0.88 0.78 0.66 0.60 0.61 0.67 0.73 0.82 1.01 1.14 1.17 1.23 1.16 1.13 1.19 1.21 1.15 1.04 1.04 0.97 1.07 1.23 1.35 1.39 1.40 1.42 1.35
1.50 1.48 1.50 1.30 1.09 0.99 0.98 0.85 0.75 0.94 0.93 0.89 0.97 1.06 1.02 1.04 0.93 0.92 0.97 1.04 1.03 0.99 0.94 0.90 0.78 0.75 0.72 0.70 0.72 0.80 0.90 0.96 0.97 0.96 0.96 1.05 1.17 1.17 1.17 1.13 1.17 1.11 1.14 1.27 1.30 1.24 1.32 1.44 1.36
1.36 1.62 1.64 1.46 1.18 1.06 1.08 1.19 0.90 0.88 0.97 1.00 1.09 1.03 0.94 0.97 0.92 0.89 0.88 0.94 0.98 0.95 0.88 0.89 0.88 0.89 0.87 0.83 0.77 0.78 0.89 0.96 0.95 0.92 0.84 0.87 0.98 1.03 1.09 1.13 1.12 1.15 1.26 1.33 1.40 1.22 1.27 1.28 1.23
1.71 2.08 2.23 1.61 1.33 1.12 1.29 1.50 1.02 0.98 1.05 1.01 0.99 0.93 0.88 0.88 0.85 0.84 0.87 0.84 0.83 0.78 0.77 0.85 0.86 0.88 0.91 0.92 0.92 0.94 0.95 1.04 0.98 0.97 0.87 0.82 0.89 0.98 1.13 1.16 1.11 1.11 1.28 1.41 1.49 1.42 1.43 1.41 1.35
1.97 2.05 1.94 1.60 1.27 1.14 1.20 1.21 0.95 0.97 1.05 0.92 0.89 0.85 0.78 0.75 0.74 0.70 0.74 0.78 0.76 0.71 0.71 0.73 0.79 0.78 0.84 0.91 0.95 1.06 1.09 1.11 1.07 1.06 0.95 0.91 0.98 1.08 1.26 1.37 1.35 1.31 1.35 1.38 1.38 1.49 1.55 1.53 1.52
1.64 1.52 1.41 1.36 1.12 1.05 1.06 0.91 0.77 0.82 0.88 0.82 0.73 0.66 0.63 0.63 0.61 0.60 0.62 0.67 0.68 0.69 0.67 0.66 0.72 0.74 0.76 0.88 0.99 1.18 1.30 1.28 1.29 1.20 1.11 1.12 1.27 1.41 1.55 1.55 1.63 1.67 1.59 1.59 1.56 1.61 1.60 1.53 1.61
1.07 1.17 1.20 1.12 0.85 0.86 0.87 0.73 0.68 0.71 0.74 0.73 0.65 0.55 0.53 0.56 0.54 0.51 0.54 0.60 0.61 0.63 0.65 0.63 0.61 0.70 0.74 0.79 0.93 1.16 1.44 1.55 1.65 1.57 1.36 1.29 1.42 1.70 1.94 1.90 1.99 2.05 1.97 1.94 1.93 2.17 2.12 1.82 1.64
1.04 1.24 1.21 1.09 0.77 0.72 0.73 0.63 0.55 0.55 0.62 0.58 0.56 0.55 0.48 0.50 0.44 0.40 0.43 0.47 0.49 0.51 0.56 0.58 0.57 0.65 0.71 0.76 0.93 1.11 1.27 1.27 1.44 1.57 1.53 1.44 1.42 1.57 1.75 2.05 2.19 2.16 2.28 2.38 2.36 2.72 2.85 2.35 1.90
1.03 1.05 1.02 1.00 0.82 0.70 0.66 0.70 0.53 0.47 0.50 0.47 0.45 0.47 0.43 0.44 0.43 0.41 0.39 0.41 0.42 0.42 0.40 0.43 0.48 0.55 0.66 0.81 1.02 1.26 1.48 1.55 1.58 1.50 1.58 1.58 1.49 1.54 1.67 1.84 1.99 2.03 2.17 2.36 2.47 2.79 3.34 3.09 2.41
0.96 0.70 0.64 0.71 0.91 0.97 0.78 0.96 0.66 0.53 0.55 0.48 0.42 0.40 0.38 0.40 0.42 0.47 0.43 0.44 0.41 0.38 0.35 0.38 0.47 0.60 0.81 1.00 1.23 1.49 1.70 1.75 1.61 1.60 1.64 1.53 1.44 1.43 1.55 1.68 1.80 1.92 1.98 2.15 2.23 2.38 2.97 3.37 3.03
0.65 0.55 0.53 0.60 0.79 0.79 0.60 0.73 0.65 0.52 0.61 0.55 0.48 0.43 0.39 0.38 0.41 0.43 0.41 0.44 0.45 0.44 0.45 0.49 0.67 0.89 1.15 1.36 1.63 1.92 1.90 1.78 1.67 1.63 1.62 1.56 1.54 1.50 1.52 1.68 1.74 1.76 1.84 1.98 2.30 2.58 2.89 3.13 3.15
0.46 0.54 0.60 0.67 0.86 0.86 0.53 0.61 0.67 0.51 0.52 0.53 0.51 0.46 0.39 0.35 0.41 0.50 0.56 0.65 0.70 0.73 0.88 1.06 1.30 1.46 1.54 1.67 1.83 1.95 1.90 1.89 1.83 1.65 1.56 1.56 1.60 1.65 1.67 1.72 1.75 1.72 1.76 1.89 2.13 2.45 2.69 3.01 3.25
0.47 0.80 1.16 1.20 1.17 0.84 0.43 0.62 0.68 0.47 0.39 0.40 0.43 0.38 0.32 0.36 0.46 0.62 0.80 0.93 1.06 1.20 1.36 1.50 1.65 1.79 1.73 1.69 1.76 1.81 1.78 1.75 1.73 1.67 1.60 1.53 1.53 1.58 1.60 1.68 1.81 1.88 1.93 2.05 2.22 2.39 2.34 2.54 2.97
0.50 0.74 1.20 1.34 1.12 0.78 0.57 0.83 0.77 0.54 0.40 0.31 0.26 0.25 0.36 0.51 0.64 0.77 0.86 0.98 1.15 1.33 1.41 1.43 1.52 1.63 1.61 1.57 1.56 1.55 1.59 1.59 1.53 1.45 1.42 1.46 1.54 1.52 1.46 1.49 1.60 1.72 1.92 1.97 2.04 2.10 2.06 2.17 2.43
0.49 0.54 0.59 0.85 0.72 0.72 0.75 0.89 0.79 0.52 0.43 0.35 0.30 0.33 0.49 0.71 0.92 1.08 1.20 1.32 1.35 1.40 1.49 1.42 1.43 1.49 1.50 1.46 1.41 1.43 1.42 1.47 1.46 1.37 1.38 1.36 1.35 1.27 1.19 1.18 1.26 1.34 1.42 1.51 1.67 1.78 1.88 1.95 2.08
0.39 0.53 0.69 1.01 1.15 1.13 1.02 1.01 0.90 0.67 0.57 0.57 0.64 0.73 0.77 0.88 1.15 1.46 1.74 1.90 1.72 1.46 1.40 1.40 1.34 1.35 1.45 1.46 1.40 1.39 1.45 1.45 1.42 1.41 1.35 1.32 1.32 1.22 1.14 1.09 1.06 1.05 1.00 1.04 1.23 1.44 1.56 1.67 1.84
0.40 0.57 0.72 0.94 1.06 1.35 1.54 1.45 1.09 1.06 1.04 1.07 1.15 1.19 1.20 1.30 1.29 1.46 1.69 1.89 1.80 1.47 1.25 1.30 1.37 1.38 1.40 1.40 1.42 1.41 1.39 1.28 1.27 1.29 1.26 1.22 1.20 1.23 1.20 1.12 1.07 1.15 1.12 1.06 1.13 1.18 1.24 1.33 1.49
0.51 0.64 0.83 1.19 1.12 1.10 1.39 1.45 1.13 1.10 1.11 1.18 1.33 1.40 1.38 1.29 1.20 1.20 1.27 1.36 1.43 1.29 1.09 1.07 1.23 1.33 1.33 1.32 1.36 1.34 1.24 1.15 1.14 1.13 1.04 0.92 0.86 0.85 0.96 1.08 1.02 1.00 1.02 1.04 1.10 1.11 1.13 1.19 1.31